Temperature
20 20 20 19 19 19 19 19 18 18 18 18 17 17 17 17 17 17 17 17 17 16 16 16 16 16 16 16 16 15 15 15 15 14 14 14 14 14 14 14 14 13 13
20 20 20 19 19 19 19 18 18 18 18 18 17 17 17 17 17 17 16 16 16 16 16 16 16 16 16 16 15 15 15 15 15 14 14 14 13 13 13 13 13 13 12
20 20 20 19 19 19 18 18 18 18 17 17 17 17 17 17 17 16 16 16 16 16 16 16 15 15 15 15 15 15 14 14 14 14 13 13 13 13 13 13 12 12 12
20 20 19 19 19 19 18 18 18 17 17 17 17 17 16 16 16 16 16 16 16 15 15 15 15 15 15 15 15 14 14 14 14 13 13 13 13 12 12 12 12 12 11
20 19 19 19 18 18 18 18 17 17 17 16 16 16 16 16 16 16 16 15 15 15 15 15 15 15 14 14 14 14 14 14 13 13 13 12 12 12 12 11 11 11 11
19 19 19 18 18 18 17 17 17 16 16 16 16 15 15 15 15 15 15 15 15 15 14 14 14 14 14 14 13 13 13 13 13 13 12 12 12 12 11 11 11 11 10
19 19 18 18 18 17 17 16 16 16 16 15 15 15 15 15 15 15 15 15 14 14 14 14 14 13 13 13 13 13 13 12 12 12 12 12 11 11 11 11 10 10 10
18 18 18 17 17 17 16 16 15 15 15 15 15 15 14 14 14 14 14 14 14 13 13 13 13 13 13 13 13 12 12 12 11 11 11 11 11 11 11 10 10 10 10
18 18 17 17 17 16 16 15 15 15 15 15 14 14 14 14 14 14 14 14 13 13 13 12 12 12 12 12 12 12 11 11 11 11 11 11 10 10 10 10 10 9 9
17 17 16 16 16 16 15 15 15 14 14 14 14 14 13 13 13 13 13 13 13 12 12 12 12 11 11 11 11 11 11 10 10 10 10 10 10 10 10 9 9 9 9
17 16 16 15 15 15 15 15 14 14 14 14 13 13 13 13 13 13 13 12 12 12 12 11 11 11 11 11 10 10 10 10 10 10 10 9 9 9 9 9 9 9 8
16 16 15 15 15 15 14 14 14 14 14 13 13 13 13 12 12 12 12 12 12 12 11 11 11 10 10 10 10 10 10 10 9 9 9 9 9 8 8 8 8 8 8
16 15 15 15 15 14 14 14 14 13 13 13 13 13 12 12 12 12 11 11 11 11 11 10 10 10 10 10 9 9 9 9 9 9 9 8 8 8 8 8 8 8 7
15 15 15 15 14 14 14 13 13 13 13 13 12 12 12 12 11 11 11 11 11 11 10 10 10 10 9 9 9 9 9 8 8 8 8 8 8 8 7 7 7 7 7
15 15 15 14 14 14 13 13 13 13 12 12 12 12 12 11 11 11 11 10 10 10 10 10 9 9 9 9 8 8 8 8 8 8 8 7 7 7 7 7 7 7 7
15 15 14 14 14 13 13 13 12 12 12 11 11 11 11 11 11 10 10 10 10 10 9 9 9 9 8 8 8 8 8 8 7 7 7 7 7 7 7 7 7 7 6
15 14 14 14 13 13 13 13 12 12 11 11 11 11 11 10 10 10 10 10 9 9 9 9 9 8 8 8 8 8 8 7 7 7 7 7 7 7 7 7 6 6 6
14 14 14 14 13 13 13 12 12 12 11 11 11 10 10 10 10 10 9 9 9 9 9 9 8 8 8 8 8 7 7 7 7 7 7 7 7 6 6 6 6 6 6
14 14 13 13 13 13 12 12 12 11 11 11 11 10 10 10 10 9 9 9 9 9 8 8 8 8 8 8 8 7 7 7 7 7 6 6 6 6 6 6 6 6 6
13 13 13 13 13 12 12 12 11 11 11 11 11 10 10 10 10 9 9 9 9 9 8 8 8 8 8 8 7 7 7 7 6 6 6 6 6 6 6 6 5 5 5
13 13 13 13 12 12 12 12 11 11 11 11 10 10 10 10 9 9 9 9 9 8 8 8 8 8 8 7 7 7 7 6 6 6 6 6 5 5 5 5 5 5 5
13 13 13 13 12 12 12 12 11 11 11 11 10 10 9 9 9 9 9 9 8 8 8 8 8 8 7 7 7 7 6 6 6 6 6 5 5 5 5 5 5 5 4
13 13 12 12 12 12 12 11 11 11 11 10 10 10 9 9 9 9 8 8 8 8 8 8 7 7 7 7 7 7 6 6 6 6 6 5 5 5 5 5 4 4 4
13 13 12 12 12 12 11 11 11 11 11 10 10 9 9 9 9 9 8 8 8 8 8 7 7 7 7 7 7 6 6 6 6 5 5 5 5 5 5 4 4 4 4
13 12 12 12 12 11 11 11 11 10 10 10 10 9 9 9 9 8 8 8 8 7 7 7 7 7 7 6 6 6 6 6 5 5 5 5 5 4 4 4 4 4 4
12 12 12 12 11 11 11 11 10 10 10 10 9 9 9 9 8 8 8 8 7 7 7 7 6 6 6 6 6 6 5 5 5 5 5 5 4 4 4 4 4 4 4
Wind_Speed
7 6 5 4 4 4 4 4 3 2 2 2 3 3 2 1 2 2 2 2 2 1 1 1 1 1 1 1 1 1 2 2 2 1 1 2 3 4 5 6 7 7 8
6 5 5 4 3 3 3 2 2 2 2 2 2 2 2 1 2 2 2 2 2 1 0 0 1 0 1 0 1 1 1 2 3 1 1 2 3 3 4 5 7 8 8
5 5 4 3 3 3 3 2 2 2 2 2 2 2 1 1 2 2 2 2 2 1 1 1 0 1 1 1 2 2 2 2 2 3 1 1 1 2 4 5 6 6 7
5 4 4 3 3 3 3 3 3 3 2 2 2 2 1 1 2 2 3 3 3 3 2 2 1 2 2 2 2 2 3 3 3 3 2 1 1 2 3 3 4 4 5
5 4 4 3 4 4 4 4 4 3 3 3 3 2 2 1 2 3 4 4 4 4 4 4 4 5 5 4 3 3 4 3 3 3 3 2 2 2 2 2 3 3 4
6 4 3 4 5 4 4 4 4 4 4 4 4 3 3 2 4 6 5 5 4 4 4 4 4 5 6 8 9 8 6 5 4 3 2 2 2 2 2 2 2 2 2
6 5 4 5 5 5 5 5 5 4 4 4 4 4 4 4 6 6 8 6 5 4 4 4 4 5 7 7 10 11 10 9 6 4 3 2 1 1 2 2 1 1 1
6 5 5 6 6 5 6 6 5 4 5 5 5 5 4 5 7 8 9 7 6 6 5 5 6 6 6 7 8 9 9 9 8 6 5 4 3 2 2 2 2 2 2
6 5 5 6 6 6 6 5 5 5 5 5 5 5 6 5 7 7 7 6 7 8 7 7 7 7 8 10 9 9 9 8 11 13 12 10 10 9 7 4 3 3 2
6 6 6 6 7 7 6 5 5 6 6 6 6 6 6 5 7 8 8 6 7 7 7 8 10 9 10 10 8 8 8 6 6 8 10 10 10 10 10 5 3 3 2
7 7 7 7 7 7 6 5 6 6 7 7 7 6 6 6 7 8 7 5 6 7 6 6 6 12 12 11 9 7 7 5 6 7 7 7 7 7 8 8 5 3 3
8 8 8 7 6 6 7 7 6 7 7 6 6 6 5 5 7 8 9 8 7 7 6 5 6 12 13 12 9 9 9 8 6 6 6 6 5 5 5 6 8 7 5
9 8 7 7 7 6 6 6 6 5 5 5 5 4 4 4 6 10 10 10 11 8 7 9 11 12 11 10 11 11 8 6 6 6 5 4 3 3 4 4 6 7 9
10 8 8 8 7 6 5 4 5 4 4 4 4 4 4 3 4 4 5 7 10 9 8 10 12 12 10 8 7 7 6 5 5 5 3 3 3 4 4 4 3 4 4
9 8 8 7 7 7 6 5 3 3 2 4 4 4 4 3 2 4 6 5 5 6 7 6 6 5 5 5 5 5 5 5 5 4 4 4 4 4 4 3 3 3 4
8 7 6 6 6 6 6 7 11 7 7 6 6 5 3 4 6 8 9 10 10 9 7 5 5 4 4 4 4 4 4 4 3 3 3 3 3 3 3 3 2 3 3
9 8 6 6 6 6 6 6 6 7 10 9 7 7 7 8 9 10 11 11 9 8 6 5 4 3 3 2 2 2 2 2 2 2 2 2 2 2 2 2 2 2 2
8 8 8 6 6 6 5 5 5 5 4 4 5 6 7 9 10 11 11 9 6 4 3 4 3 2 2 2 2 2 2 2 2 2 2 2 2 2 2 2 2 2 2
8 6 6 6 6 6 5 5 5 5 5 4 3 3 6 8 9 8 7 5 4 3 3 2 2 2 2 2 2 2 2 2 2 2 2 2 2 2 2 2 2 2 2
7 9 8 7 6 6 5 5 5 5 5 4 4 3 3 4 4 3 3 3 3 3 2 2 1 1 1 2 2 2 2 2 2 2 2 1 1 1 1 1 1 1 1
7 8 10 7 6 6 6 6 5 5 5 4 3 3 5 4 4 4 3 2 3 3 3 2 2 1 2 2 2 2 2 1 1 1 1 1 0 0 1 1 1 1 2
7 7 7 7 6 6 6 5 5 5 5 5 3 3 5 4 3 3 3 2 2 2 3 3 2 2 2 2 2 2 1 1 0 0 0 0 0 0 0 1 1 1 1
7 7 7 6 6 7 6 5 6 6 5 5 5 4 4 4 3 3 3 2 2 2 3 3 3 2 1 2 2 2 2 2 2 2 1 1 0 0 1 1 1 1 1
7 7 7 7 6 6 6 6 6 6 6 6 5 5 5 4 4 4 3 3 2 2 2 3 3 3 3 2 2 3 3 3 3 3 2 2 1 1 1 1 2 2 2
7 7 7 6 6 6 6 6 6 6 6 6 5 5 5 4 4 4 4 3 3 3 3 3 2 3 3 3 3 3 2 2 2 2 2 2 1 1 1 2 2 2 2
6 6 6 5 5 5 6 6 6 6 6 6 5 5 5 5 5 4 4 4 4 4 3 3 3 3 3 3 3 3 2 2 2 2 2 2 1 2 2 2 3 3 3
Wind_Direction
195 195 196 194 195 185 186 197 197 192 186 188 183 181 185 189 173 171 183 181 181 223 258 228 257 249 229 228 193 184 185 172 196 288 25 20 39 47 42 49 52 52 49
183 175 179 175 169 170 179 183 172 168 159 165 156 152 152 145 140 154 171 170 155 157 207 94 314 327 61 54 107 124 145 153 162 171 35 36 45 50 51 56 59 60 59
158 160 161 162 163 165 166 154 138 135 125 126 131 138 147 144 137 141 145 136 129 121 112 122 88 95 79 67 83 95 108 118 127 137 108 52 59 56 58 60 59 55 58
138 145 155 166 163 155 143 130 119 119 119 122 122 121 126 128 134 136 126 117 105 88 77 87 99 113 121 110 98 97 103 103 109 119 108 77 65 53 64 71 57 43 44
131 134 145 145 135 129 126 124 113 105 101 94 88 77 68 86 119 124 119 113 106 90 72 69 79 86 88 96 102 103 106 103 105 104 95 78 72 77 65 59 72 57 46
134 139 135 126 116 115 118 115 107 98 88 85 86 83 74 74 91 107 116 107 102 97 87 75 73 74 82 83 83 86 95 105 109 102 91 89 72 78 85 97 93 74 51
134 130 115 111 107 105 104 100 101 101 97 92 87 84 81 78 92 100 104 102 92 83 81 80 76 70 75 82 78 70 66 70 88 111 111 98 110 122 123 101 70 59 67
128 123 117 115 110 102 99 98 95 97 96 95 88 84 79 72 82 93 97 94 85 75 74 80 84 76 77 87 85 74 65 58 62 73 86 78 73 84 115 130 125 78 71
121 119 114 114 110 103 102 101 99 95 89 88 85 82 82 71 74 90 95 90 84 72 65 67 81 83 77 85 89 83 71 57 61 70 73 73 71 71 81 93 87 92 74
127 123 116 114 114 112 109 103 95 94 90 86 80 77 79 71 68 84 94 97 93 84 72 67 70 80 78 79 88 90 83 66 62 60 57 54 59 62 63 68 97 104 89
123 115 110 108 109 109 104 99 99 99 94 88 81 69 67 67 67 74 88 100 106 100 89 78 72 79 78 74 76 83 90 87 74 69 62 54 51 50 47 48 57 86 88
117 112 108 105 107 108 105 99 97 101 99 93 85 71 56 54 65 75 83 92 101 102 97 90 84 81 78 73 74 76 77 76 75 70 65 55 50 42 35 45 55 61 63
114 111 108 102 96 101 107 109 103 100 104 104 100 90 71 61 66 74 82 87 90 94 94 93 88 83 78 73 69 70 71 75 77 75 68 51 32 26 39 47 49 53 54
119 116 111 107 101 92 89 97 109 112 115 115 113 109 98 78 75 81 88 92 90 91 92 86 81 76 72 67 62 59 60 69 80 78 67 47 39 43 45 43 42 36 48
123 119 114 110 110 99 83 66 84 82 128 139 139 138 133 124 116 118 121 113 114 114 107 89 80 75 68 63 61 57 57 62 63 60 66 60 53 49 39 35 41 44 48
131 128 125 122 116 113 105 81 56 64 73 88 110 121 104 115 121 116 114 114 114 117 104 99 93 88 85 80 76 65 55 55 54 62 67 64 58 52 44 41 49 52 45
140 139 135 134 133 131 126 120 103 64 60 67 83 99 107 113 114 117 114 107 104 108 101 106 108 105 97 90 82 74 55 32 40 61 62 56 57 57 53 43 42 40 29
139 142 142 142 142 140 136 132 129 126 110 68 49 77 100 111 117 121 118 104 88 82 106 121 124 125 118 107 97 83 68 55 50 50 50 51 55 60 51 41 39 32 24
144 146 142 140 139 137 133 129 128 127 125 118 99 74 85 102 102 103 109 111 124 120 118 124 130 134 130 121 108 93 85 70 55 52 49 47 50 59 51 42 43 40 31
148 148 143 141 140 139 139 140 140 140 140 142 141 135 127 115 114 106 103 116 128 136 141 141 141 144 144 133 122 107 90 74 59 55 49 45 43 56 57 50 42 27 5
146 149 146 144 150 151 152 154 153 152 154 154 154 153 151 144 145 145 149 154 161 169 170 163 162 167 159 149 141 133 119 100 71 45 30 30 34 16 11 23 17 10 4
147 150 154 156 155 155 156 156 156 156 159 157 147 140 143 143 150 155 166 181 192 191 188 173 168 176 179 171 164 160 163 168 193 298 298 316 6 38 38 15 3 357 359
147 149 150 150 151 150 152 157 162 165 165 166 163 158 160 166 171 177 185 190 186 190 188 178 173 182 196 188 183 184 195 219 232 224 205 216 260 298 305 305 308 318 320
150 151 152 152 151 156 162 166 169 171 172 172 173 174 175 178 182 184 182 175 175 184 189 187 194 201 198 193 192 199 215 226 224 218 209 210 232 272 284 286 283 287 292
149 153 156 159 160 164 167 169 172 175 176 177 179 181 181 181 182 183 181 176 173 177 181 187 202 210 203 194 196 204 210 210 215 219 210 215 243 262 273 279 282 283 286
148 153 157 160 164 169 173 176 179 179 181 184 185 187 188 188 189 189 187 185 185 189 193 202 214 214 211 212 214 213 213 224 245 241 217 220 251 276 284 280 286 281 285
Height
1539 1541 1543 1544 1545 1546 1546 1547 1548 1549 1550 1550 1550 1550 1551 1551 1551 1551 1551 1551 1551 1551 1551 1551 1550 1550 1550 1550 1550 1550 1550 1551 1550 1550 1551 1551 1551 1550 1550 1549 1549 1548 1547
1537 1539 1540 1541 1542 1543 1544 1545 1545 1546 1547 1547 1548 1548 1548 1549 1549 1549 1548 1549 1549 1549 1549 1549 1549 1549 1548 1548 1548 1548 1548 1548 1549 1548 1549 1549 1549 1549 1548 1548 1547 1547 1546
1535 1536 1538 1539 1540 1540 1541 1542 1543 1544 1544 1544 1545 1545 1546 1546 1546 1547 1547 1547 1547 1547 1547 1547 1547 1547 1547 1547 1547 1547 1547 1547 1547 1547 1547 1547 1547 1547 1547 1547 1546 1546 1546
1533 1534 1535 1536 1537 1538 1539 1539 1540 1541 1542 1542 1543 1543 1543 1544 1544 1544 1545 1545 1545 1545 1545 1545 1545 1545 1545 1545 1545 1545 1546 1546 1546 1546 1545 1546 1546 1546 1546 1546 1545 1545 1545
1531 1532 1533 1534 1535 1536 1536 1537 1538 1539 1540 1540 1541 1541 1541 1542 1542 1543 1543 1543 1543 1544 1544 1544 1544 1544 1544 1545 1544 1544 1545 1544 1545 1545 1545 1545 1545 1545 1545 1545 1545 1545 1545
1530 1531 1531 1532 1533 1534 1535 1536 1536 1537 1538 1539 1540 1540 1540 1540 1541 1541 1542 1542 1542 1543 1543 1544 1544 1544 1544 1544 1544 1544 1545 1544 1544 1544 1544 1544 1544 1545 1545 1545 1545 1544 1544
1529 1530 1530 1531 1532 1533 1534 1535 1536 1536 1537 1538 1539 1539 1539 1540 1540 1540 1541 1541 1542 1542 1543 1543 1543 1544 1544 1544 1544 1544 1544 1544 1545 1545 1544 1544 1545 1545 1545 1544 1544 1544 1544
1528 1529 1529 1530 1531 1533 1533 1534 1535 1536 1537 1537 1538 1539 1539 1540 1540 1540 1541 1541 1541 1542 1543 1543 1543 1544 1544 1544 1544 1544 1545 1545 1545 1545 1545 1545 1545 1545 1545 1545 1545 1545 1545
1528 1528 1529 1530 1531 1533 1534 1535 1536 1536 1537 1537 1538 1539 1540 1540 1541 1541 1542 1542 1542 1542 1543 1544 1544 1544 1545 1545 1545 1545 1545 1546 1546 1546 1546 1546 1545 1545 1545 1545 1545 1544 1544
1527 1528 1530 1531 1532 1533 1534 1536 1536 1537 1538 1539 1539 1540 1541 1541 1542 1542 1543 1543 1543 1543 1544 1545 1545 1546 1546 1546 1546 1546 1546 1547 1548 1547 1547 1546 1546 1546 1545 1545 1545 1544 1544
1527 1529 1530 1532 1533 1534 1535 1537 1538 1538 1539 1540 1540 1541 1542 1543 1543 1544 1544 1544 1544 1545 1545 1546 1547 1547 1547 1547 1547 1547 1548 1548 1548 1548 1548 1547 1547 1546 1546 1546 1545 1545 1545
1528 1529 1531 1532 1534 1535 1536 1538 1539 1540 1541 1541 1542 1543 1544 1544 1545 1546 1546 1546 1547 1547 1547 1548 1548 1549 1549 1549 1549 1549 1549 1550 1550 1549 1548 1548 1548 1548 1547 1547 1547 1546 1546
1528 1530 1532 1533 1535 1536 1538 1539 1540 1541 1542 1543 1544 1544 1545 1546 1546 1547 1547 1548 1548 1549 1549 1550 1550 1551 1551 1551 1551 1551 1551 1551 1551 1550 1550 1549 1549 1549 1549 1549 1548 1548 1547
1529 1531 1532 1534 1536 1537 1539 1540 1541 1542 1544 1545 1545 1546 1546 1547 1548 1548 1549 1549 1550 1550 1551 1551 1552 1552 1552 1552 1553 1553 1553 1553 1552 1552 1551 1551 1551 1551 1550 1550 1549 1549 1548
1530 1531 1533 1535 1536 1538 1540 1541 1542 1544 1545 1546 1547 1547 1547 1548 1549 1550 1550 1551 1551 1552 1552 1553 1553 1554 1554 1554 1554 1554 1554 1554 1554 1553 1553 1553 1552 1552 1551 1551 1550 1550 1549
1530 1532 1534 1535 1537 1539 1540 1542 1543 1545 1546 1547 1548 1549 1549 1550 1550 1551 1552 1552 1553 1554 1554 1554 1555 1555 1555 1555 1555 1555 1555 1555 1555 1555 1554 1554 1553 1553 1552 1552 1551 1551 1550
1531 1532 1534 1536 1538 1540 1541 1542 1544 1546 1547 1548 1549 1550 1551 1551 1552 1552 1553 1554 1554 1555 1555 1556 1556 1556 1556 1556 1556 1556 1556 1556 1556 1555 1555 1554 1554 1553 1553 1552 1552 1551 1550
1531 1533 1535 1537 1539 1541 1542 1543 1545 1546 1547 1549 1550 1551 1552 1552 1553 1554 1554 1555 1556 1556 1557 1557 1557 1557 1557 1557 1557 1557 1557 1556 1556 1556 1555 1555 1554 1553 1553 1552 1551 1551 1550
1531 1533 1536 1537 1539 1541 1543 1544 1546 1547 1548 1549 1550 1551 1552 1553 1554 1555 1556 1556 1557 1557 1558 1558 1558 1558 1558 1558 1558 1557 1557 1557 1556 1556 1555 1554 1554 1553 1552 1552 1551 1550 1550
1531 1534 1536 1537 1539 1541 1543 1544 1546 1547 1549 1550 1551 1552 1553 1554 1554 1555 1556 1557 1558 1558 1559 1559 1559 1559 1558 1558 1558 1558 1557 1557 1556 1555 1555 1554 1553 1553 1552 1551 1550 1550 1549
1531 1533 1535 1537 1539 1541 1543 1544 1546 1547 1549 1550 1551 1552 1553 1554 1555 1556 1556 1557 1558 1558 1559 1559 1559 1559 1558 1558 1558 1557 1557 1556 1556 1555 1554 1553 1553 1552 1551 1550 1550 1549 1548
1531 1533 1535 1537 1539 1541 1542 1544 1546 1547 1548 1549 1550 1552 1553 1554 1555 1556 1556 1557 1558 1558 1558 1559 1558 1558 1558 1558 1557 1557 1556 1555 1555 1554 1553 1552 1552 1551 1550 1549 1548 1547 1546
1530 1532 1534 1536 1538 1540 1542 1543 1545 1546 1547 1548 1550 1551 1552 1553 1554 1555 1556 1557 1557 1557 1558 1558 1558 1557 1557 1557 1556 1555 1555 1554 1553 1552 1551 1551 1550 1549 1549 1548 1547 1546 1545
1530 1532 1534 1535 1537 1539 1541 1542 1544 1545 1546 1547 1549 1550 1551 1552 1553 1554 1555 1556 1556 1556 1556 1556 1556 1556 1556 1555 1554 1554 1553 1552 1552 1551 1550 1549 1548 1548 1547 1546 1545 1544 1542
1529 1531 1533 1534 1536 1538 1540 1541 1543 1544 1545 1546 1547 1549 1550 1551 1552 1552 1553 1554 1554 1554 1555 1555 1555 1554 1554 1553 1553 1552 1551 1551 1550 1549 1548 1547 1546 1545 1544 1543 1542 1541 1540
1528 1530 1532 1533 1535 1537 1538 1540 1541 1542 1543 1544 1546 1547 1548 1549 1550 1550 1551 1552 1552 1552 1553 1553 1553 1552 1552 1551 1551 1550 1549 1549 1548 1547 1546 1545 1544 1543 1542 1541 1540 1539 1538